Regional Weather Roundup
Issued by NWS

Home | Current Version | Previous Version | Text Only | Print | Product List | Glossary Off
Versions: 1 2 3 4 5 6 7 8 9 10 11 12 13 14 15 16 17 18 19 20 21 22 23 24 25 26 27 28 29 30 31 32 33 34 35 36 37 38 39 40 41 42 43 44 45 46 47 48 49 50

651
ASUS43 KOAX 191710
RWRNE

WEATHER ROUNDUP FOR NEBRASKA
NATIONAL WEATHER SERVICE OMAHA NE
1200 PM CDT THU APR 19 2018

NOTES: SATELLITE DATA IS BEING USED TO AUGMENT CLOUD COVER ABOVE
       12000 FEET.
       "FAIR" INDICATES FEW OR NO CLOUDS BELOW 12,000 FEET WITH NO
       SIGNIFICANT WEATHER AND/OR OBSTRUCTIONS TO VISIBILITY.


NEZ001>004-019>022-054>056-191800-
NEBRASKA PANHANDLE

CITY           SKY/WX    TMP DP  RH WIND       PRES   REMARKS
SCOTTSBLUFF    CLOUDY    53  30  41 SE23G30   30.28F
ALLIANCE       PTSUNNY   51  33  50 SE22G29   30.31F
CHADRON        PTSUNNY   53  32  44 S15       30.30F
GORDON         FAIR      52  32  45 S9        30.33F
KIMBALL        PTSUNNY   50  24  35 SE21G29   30.27F
SIDNEY         MOSUNNY   52  30  43 S21G30    30.31F
$$

NEZ057>060-069>072-079>082-191800-
SOUTHWEST NEBRASKA

CITY           SKY/WX    TMP DP  RH WIND       PRES   REMARKS
NORTH PLATTE   SUNNY     49  30  48 SE5       30.42F
IMPERIAL       SUNNY     53  32  44 E14G22    30.38F
LEXINGTON      SUNNY     47  31  53 SE5       30.46R
MCCOOK         SUNNY     50  29  44 SE9       30.43F
OGALLALA       SUNNY     53  33  46 S9        30.37F
$$

NEZ005>010-023>029-035>040-094-191800-
NORTH CENTRAL NEBRASKA

CITY           SKY/WX    TMP DP  RH WIND       PRES   REMARKS
VALENTINE      SUNNY     48  29  47 SE10G17   30.41F
AINSWORTH      SUNNY     44  32  63 SE6       30.43F
BROKEN BOW     SUNNY     47  31  53 MISG      30.44S
O`NEILL        SUNNY     47  20  34 CALM      30.48S
ORD            SUNNY     46  24  42 E7        30.46S
THEDFORD       SUNNY     48  31  50 SE7       30.42S
$$

NEZ041-046>049-061>064-073>077-083>087-191800-
SOUTH CENTRAL NEBRASKA

CITY           SKY/WX    TMP DP  RH WIND       PRES   REMARKS
GRAND ISLAND   SUNNY     46  29  51 E8        30.47F
AURORA         SUNNY     46  30  53 NE3       30.47F
HASTINGS       SUNNY     47  28  47 NE7       30.47S
HEBRON         SUNNY     49  28  44 CALM      30.48R
HOLDREGE       SUNNY     45  29  54 E3        30.46S
KEARNEY        SUNNY     45  27  49 CALM      30.48R
YORK             N/A     46  32  57 N6        30.48S
$$

NEZ011>018-030>034-042>045-191800-
NORTHEAST NEBRASKA

CITY           SKY/WX    TMP DP  RH WIND       PRES   REMARKS
NORFOLK        SUNNY     47  23  38 N6        30.46F
ALBION         SUNNY     48  23  37 E5        30.47F
BLAIR          SUNNY     47  29  48 NE7       30.47S
COLUMBUS       SUNNY     49  24  37 NE9       30.49S
FREMONT        SUNNY     49  26  40 E5        30.48S
TEKAMAH        SUNNY     45  31  58 CALM      30.49R
WAYNE          SUNNY     46  25  44 N7        30.49S
$$

NEZ050>053-065>068-078-088>093-191800-
SOUTHEAST NEBRASKA

CITY           SKY/WX    TMP DP  RH WIND       PRES   REMARKS
LINCOLN        SUNNY     50  28  42 W3        30.50R
OMAHA EPPLEY   MOSUNNY   50  29  44 NE6       30.48S
BEATRICE       SUNNY     51  31  48 NE7       30.48S
FALLS CITY     SUNNY     52  29  41 NE10      30.47S
NEBRASKA CITY  SUNNY     48  30  50 N5        30.48R
PLATTSMOUTH    MOSUNNY   48  30  48 N5        30.47S
$$

NEZ044-045-051>053-067-191800-
OMAHA AREA

CITY           SKY/WX    TMP DP  RH WIND       PRES   REMARKS
OMAHA EPPLEY   MOSUNNY   50  29  44 NE6       30.48S
BLAIR          SUNNY     47  29  48 NE7       30.47S
FREMONT        SUNNY     49  26  40 E5        30.48S
MILLARD        SUNNY     49  28  45 N7        30.48S
OFFUTT AFB     SUNNY     49  28  45 N5        30.47
PLATTSMOUTH    MOSUNNY   48  30  48 N5        30.47S
WAHOO          FAIR      50  13  23 NE6       30.48S
$$




USA.gov is the U.S. government's official web portal to all federal, state and local government web resources and services.